Location: Lecco
(45.8566°N, 9.3977°E)
Time: 02:17:26
(UTC+01:00)

Envisat - Pass Details

Date: 24 October 2019
Orbit: 764 x 766 km, 98.1° (Epoch: 19 November)

Event Time Altitude Azimuth Distance (km) Brightness Sun altitude
Rises 18:41:14 0° 145° (SE) 3,222 6.0 -4.1°
Reaches altitude 10° 18:43:38 10° 139° (SE) 2,299 5.2 -4.5°
Maximum altitude 18:48:23 43° 69° (ENE) 1,076 3.4 -5.3°
Drops below altitude 10° 18:53:10 10° 359° (N) 2,314 5.4 -6.1°
Sets 18:55:35 0° 353° (N) 3,244 6.2 -6.6°
